TimeMST,TemperatureF,Dew PointF,Humidity,Sea Level PressureIn,VisibilityMPH,Wind Direction,Wind SpeedMPH,Gust SpeedMPH,PrecipitationIn,Events,Conditions,WindDirDegrees,DateUTC
12:53 AM,33.1,19.9,59,30.32,10.0,West,6.9,-,N/A,,Overcast,260,2014-01-22 07:53:00
1:53 AM,33.1,19.0,56,30.30,10.0,WSW,6.9,-,N/A,,Clear,250,2014-01-22 08:53:00
2:53 AM,28.0,19.0,69,30.30,10.0,Calm,Calm,-,N/A,,Clear,0,2014-01-22 09:53:00
3:53 AM,30.0,19.9,66,30.28,10.0,SW,4.6,-,N/A,,Clear,230,2014-01-22 10:53:00
4:53 AM,26.1,21.0,81,30.30,10.0,Calm,Calm,-,N/A,,Partly Cloudy,0,2014-01-22 11:53:00
5:53 AM,30.0,21.9,72,30.29,10.0,Calm,Calm,-,N/A,,Overcast,0,2014-01-22 12:53:00
6:53 AM,30.0,23.0,75,30.30,5.0,NW,3.5,-,0.00,Snow,Light Snow,310,2014-01-22 13:53:00
7:12 AM,28.4,23.0,80,30.17,9.0,Calm,Calm,-,0.00,,Overcast,0,2014-01-22 14:12:00
7:53 AM,30.0,25.0,82,30.31,10.0,Calm,Calm,-,0.00,,Overcast,0,2014-01-22 14:53:00
8:17 AM,28.4,24.8,86,30.17,2.5,Calm,Calm,-,0.00,Snow,Light Snow,0,2014-01-22 15:17:00
8:51 AM,28.4,26.6,93,30.18,1.5,Calm,Calm,-,0.00,Snow,Light Snow,0,2014-01-22 15:51:00
8:53 AM,28.9,26.1,89,30.32,1.5,Calm,Calm,-,0.00,Snow,Light Snow,0,2014-01-22 15:53:00
8:56 AM,28.4,26.6,93,30.17,0.8,Calm,Calm,-,0.00,Snow,Light Snow,0,2014-01-22 15:56:00
9:35 AM,28.4,26.6,93,30.17,0.5,Calm,Calm,-,0.03,Fog-Snow,Snow,0,2014-01-22 16:35:00
9:53 AM,28.0,27.0,96,30.32,0.5,Calm,Calm,-,0.04,Fog-Snow,Snow,0,2014-01-22 16:53:00
10:08 AM,28.4,26.6,93,30.17,0.8,Calm,Calm,-,0.01,Snow,Light Snow,0,2014-01-22 17:08:00
10:38 AM,30.2,26.6,86,30.17,0.5,Calm,Calm,-,0.03,Fog-Snow,Snow,0,2014-01-22 17:38:00
10:53 AM,30.0,27.0,88,30.31,0.5,Calm,Calm,-,0.04,Fog-Snow,Snow,0,2014-01-22 17:53:00
11:05 AM,30.2,26.6,86,30.17,0.5,Calm,Calm,-,0.01,Fog-Snow,Snow,0,2014-01-22 18:05:00
11:30 AM,30.2,26.6,86,30.17,0.8,Calm,Calm,-,0.02,Snow,Light Snow,0,2014-01-22 18:30:00
11:48 AM,30.2,26.6,86,30.16,1.2,Calm,Calm,-,0.02,Snow,Light Snow,0,2014-01-22 18:48:00
11:53 AM,30.9,28.0,89,30.30,1.5,Calm,Calm,-,0.03,Snow,Light Snow,0,2014-01-22 18:53:00
12:10 PM,32.0,28.4,87,30.16,1.8,Calm,Calm,-,0.00,Snow,Light Snow,0,2014-01-22 19:10:00
12:21 PM,32.0,28.4,87,30.16,2.0,Calm,Calm,-,0.00,Snow,Light Snow,0,2014-01-22 19:21:00
12:29 PM,32.0,28.4,87,30.16,1.8,Calm,Calm,-,0.00,Snow,Light Snow,0,2014-01-22 19:29:00
12:34 PM,32.0,28.4,87,30.16,2.0,Calm,Calm,-,0.00,Snow,Light Snow,0,2014-01-22 19:34:00
12:41 PM,32.0,28.4,87,30.16,2.0,Calm,Calm,-,0.00,Snow,Light Snow,0,2014-01-22 19:41:00
12:53 PM,30.9,28.0,89,30.30,2.5,Calm,Calm,-,0.01,Snow,Light Snow,0,2014-01-22 19:53:00
1:22 PM,30.2,28.4,93,30.16,1.5,Calm,Calm,-,0.00,Snow,Light Snow,0,2014-01-22 20:22:00
1:41 PM,32.0,28.4,87,30.17,2.0,Calm,Calm,-,0.00,Snow,Light Snow,0,2014-01-22 20:41:00
1:53 PM,32.0,28.0,85,30.31,5.0,Calm,Calm,-,0.00,,Overcast,0,2014-01-22 20:53:00
2:53 PM,33.1,28.9,85,30.34,4.0,West,5.8,-,0.00,Snow,Light Snow,260,2014-01-22 21:53:00
3:02 PM,33.8,28.4,81,30.19,2.0,West,4.6,-,0.00,Snow,Light Snow,280,2014-01-22 22:02:00
3:11 PM,33.8,30.2,87,30.20,1.2,West,6.9,-,0.01,Snow,Light Snow,270,2014-01-22 22:11:00
3:20 PM,33.8,30.2,87,30.20,1.8,West,6.9,-,0.01,Snow,Light Snow,270,2014-01-22 22:20:00
3:27 PM,33.8,30.2,87,30.20,3.0,West,6.9,-,0.01,Snow,Light Snow,270,2014-01-22 22:27:00
3:53 PM,34.0,30.0,85,30.36,10.0,West,8.1,-,0.01,,Overcast,260,2014-01-22 22:53:00
4:53 PM,33.1,28.9,85,30.41,10.0,NNW,5.8,-,N/A,,Overcast,330,2014-01-22 23:53:00
5:31 PM,33.8,28.4,81,30.26,10.0,West,6.9,-,N/A,,Overcast,270,2014-01-23 00:31:00
5:53 PM,32.0,27.0,82,30.43,10.0,West,6.9,-,N/A,,Overcast,270,2014-01-23 00:53:00
6:05 PM,30.2,26.6,86,30.28,10.0,West,6.9,-,N/A,,Overcast,280,2014-01-23 01:05:00
6:53 PM,32.0,26.1,79,30.45,10.0,WNW,4.6,-,N/A,,Overcast,290,2014-01-23 01:53:00
7:53 PM,30.9,26.1,82,30.48,10.0,NW,6.9,-,N/A,,Overcast,310,2014-01-23 02:53:00
8:53 PM,30.9,26.1,82,30.51,10.0,Calm,Calm,-,N/A,,Overcast,0,2014-01-23 03:53:00
9:14 PM,30.2,26.6,86,30.36,10.0,Calm,Calm,-,N/A,,Overcast,0,2014-01-23 04:14:00
9:53 PM,28.9,25.0,85,30.55,10.0,NNW,5.8,-,N/A,,Overcast,340,2014-01-23 04:53:00
10:53 PM,28.0,24.1,85,30.56,10.0,Calm,Calm,-,N/A,,Mostly Cloudy,0,2014-01-23 05:53:00
11:23 PM,26.6,23.0,86,30.40,10.0,Calm,Calm,-,N/A,,Scattered Clouds,0,2014-01-23 06:23:00
11:36 PM,26.6,23.0,86,30.40,10.0,Calm,Calm,-,N/A,,Mostly Cloudy,0,2014-01-23 06:36:00
11:53 PM,27.0,24.1,89,30.57,10.0,Calm,Calm,-,N/A,,Overcast,0,2014-01-23 06:53:00